Location: Unspecified
(43.8044°N, 11.0278°E)
Time: 06:24:17
(UTC+02:00)

Cosmos 2058 - Visible Passes

Search period start: 01 May 2017 00:00
Search period end: 11 May 2017 00:00
Orbit: 563 x 586 km, 82.5° (Epoch: 29 April)

Date Brightness Start Highest point End Pass type
(mag) Time Alt. Az. Time Alt. Az. Time Alt. Az.
04 May 6.0 04:59:24 10° ESE 05:01:18 13° E 05:03:12 10° ENE visible
05 May 5.8 05:01:53 10° SE 05:04:34 17° E 05:07:15 10° NE visible
06 May 5.5 05:04:39 10° SE 05:07:51 22° E 05:11:04 10° NE visible
07 May 5.0 05:07:36 10° SSE 05:11:10 29° E 05:14:43 10° NNE visible
08 May 4.4 05:10:40 10° SSE 05:14:29 38° E 05:18:18 10° NNE visible
09 May 3.8 05:13:50 10° S 05:17:49 52° E 05:21:49 10° NNE visible
10 May 3.2 05:17:06 10° S 05:21:10 71° E 05:25:16 10° NNE visible
